Tracking 20623 objects as of 3-Apr-2020
HD Live streaming from Space Station
objects crossing your sky now

STARLINK-1075

Track STARLINK-1075 now!
10-day predictions
STARLINK-1075 is classified as:


NORAD ID: 44958
Int'l Code: 2020-001AW
Perigee: 386.0 km
Apogee: 387.6 km
Inclination: 53.0 °
Period: 92.1 minutes
Semi major axis: 6757 km
RCS: Unknown
Launch date: January 7, 2020
Source: United States (US)
Launch site: AIR FORCE EASTERN TEST RANGE (AFETR)
aabbcc
Your satellite tracking list
Your tracking list is empty




NASA's NSSDC Master Catalog

Two Line Element Set (TLE):
1 44958U 20001AW  20094.25001157 -.00030148  00000-0 -32435-3 0  9997
2 44958  53.0004 324.7949 0001223  57.3504 186.7064 15.62774404 13718
Source of the keplerian elements: AFSPC